Year,Month,Day,Hour,Minute,Value (Times are PST for windspeed in km/hr)
2016,03,10,00,00,29.40
2016,03,10,00,01,32.40
2016,03,10,00,02,32.70
2016,03,10,00,03,27.80
2016,03,10,00,04,27.70
2016,03,10,00,05,27.40
2016,03,10,00,06,26.40
2016,03,10,00,07,31.80
2016,03,10,00,08,30.90
2016,03,10,00,09,29.00
2016,03,10,00,10,30.10
2016,03,10,00,11,25.20
2016,03,10,00,12,23.30
2016,03,10,00,13,28.20
2016,03,10,00,14,26.60
2016,03,10,00,15,21.20
2016,03,10,00,16,25.30
2016,03,10,00,17,25.80
2016,03,10,00,18,26.60
2016,03,10,00,19,27.00
2016,03,10,00,20,30.00
2016,03,10,00,21,32.40
2016,03,10,00,22,25.90
2016,03,10,00,23,30.00
2016,03,10,00,24,32.30
2016,03,10,00,25,27.40
2016,03,10,00,26,25.80
2016,03,10,00,27,22.90
2016,03,10,00,28,24.00
2016,03,10,00,29,24.70
2016,03,10,00,30,28.20
2016,03,10,00,31,31.20
2016,03,10,00,32,27.50
2016,03,10,00,33,23.40
2016,03,10,00,34,26.70
2016,03,10,00,35,23.80
2016,03,10,00,36,29.20
2016,03,10,00,37,26.30
2016,03,10,00,38,24.50
2016,03,10,00,39,25.70
2016,03,10,00,40,25.40
2016,03,10,00,41,23.30
2016,03,10,00,42,23.80
2016,03,10,00,43,27.70
2016,03,10,00,44,21.80
2016,03,10,00,45,17.40
2016,03,10,00,46,18.00
2016,03,10,00,47,19.70
2016,03,10,00,48,28.10
2016,03,10,00,49,25.50
2016,03,10,00,50,27.10
2016,03,10,00,51,24.80
2016,03,10,00,52,20.40
2016,03,10,00,53,23.40
2016,03,10,00,54,25.80
2016,03,10,00,55,21.40
2016,03,10,00,56,23.70
2016,03,10,00,57,24.40
2016,03,10,00,58,22.60
2016,03,10,00,59,19.00
2016,03,10,01,00,17.50
2016,03,10,01,01,18.80
2016,03,10,01,02,17.90
2016,03,10,01,03,19.30
2016,03,10,01,04,18.30
2016,03,10,01,05,17.40
2016,03,10,01,06,17.50
2016,03,10,01,07,16.20
2016,03,10,01,08,16.10
2016,03,10,01,09,14.20
2016,03,10,01,10,15.50
2016,03,10,01,11,13.30
2016,03,10,01,12,12.70
2016,03,10,01,13,15.40
2016,03,10,01,14,14.30
2016,03,10,01,15,11.70
2016,03,10,01,16,13.90
2016,03,10,01,17,15.40
2016,03,10,01,18,12.70
2016,03,10,01,19,10.30
2016,03,10,01,20,8.80
2016,03,10,01,21,9.20
2016,03,10,01,22,9.90
2016,03,10,01,23,15.40
2016,03,10,01,24,16.70
2016,03,10,01,25,15.00
2016,03,10,01,26,17.10
2016,03,10,01,27,13.40
2016,03,10,01,28,14.20
2016,03,10,01,29,15.00
2016,03,10,01,30,14.60
2016,03,10,01,31,17.50
2016,03,10,01,32,18.20
2016,03,10,01,33,18.40
2016,03,10,01,34,17.30
2016,03,10,01,35,19.10
2016,03,10,01,36,16.60
2016,03,10,01,37,16.80
2016,03,10,01,38,22.40
2016,03,10,01,39,23.60
2016,03,10,01,40,23.30
2016,03,10,01,41,20.80
2016,03,10,01,42,21.20
2016,03,10,01,43,19.70
2016,03,10,01,44,18.00
2016,03,10,01,45,15.30
2016,03,10,01,46,18.80
2016,03,10,01,47,21.80
2016,03,10,01,48,20.20
2016,03,10,01,49,21.60
2016,03,10,01,50,20.70
2016,03,10,01,51,21.60
2016,03,10,01,52,21.20
2016,03,10,01,53,20.00
2016,03,10,01,54,21.20
2016,03,10,01,55,21.30
2016,03,10,01,56,24.00
2016,03,10,01,57,23.80
2016,03,10,01,58,22.60
2016,03,10,01,59,26.00
2016,03,10,02,00,24.50
2016,03,10,02,01,21.50
2016,03,10,02,02,19.70
2016,03,10,02,03,40.40
2016,03,10,02,04,27.40
2016,03,10,02,05,23.40
2016,03,10,02,06,27.80
2016,03,10,02,07,26.40
2016,03,10,02,08,23.90
2016,03,10,02,09,24.20
2016,03,10,02,10,31.40
2016,03,10,02,11,30.20
2016,03,10,02,12,32.10
2016,03,10,02,13,28.20
2016,03,10,02,14,32.60
2016,03,10,02,15,28.70
2016,03,10,02,16,25.40
2016,03,10,02,17,25.30
2016,03,10,02,18,20.90
2016,03,10,02,19,21.30
2016,03,10,02,20,21.20
2016,03,10,02,21,17.90
2016,03,10,02,22,21.30
2016,03,10,02,23,21.20
2016,03,10,02,24,18.60
2016,03,10,02,25,18.60
2016,03,10,02,26,23.00
2016,03,10,02,27,16.00
2016,03,10,02,28,19.40
2016,03,10,02,29,22.40
2016,03,10,02,30,18.20
2016,03,10,02,31,18.70
2016,03,10,02,32,21.20
2016,03,10,02,33,20.10
2016,03,10,02,34,24.60
2016,03,10,02,35,27.20
2016,03,10,02,36,24.30
2016,03,10,02,37,18.50
2016,03,10,02,38,20.30
2016,03,10,02,39,19.90
2016,03,10,02,40,21.40
2016,03,10,02,41,26.50
2016,03,10,02,42,25.70
2016,03,10,02,43,22.50
2016,03,10,02,44,20.60
2016,03,10,02,45,21.60
2016,03,10,02,46,22.80
2016,03,10,02,47,22.70
2016,03,10,02,48,24.10
2016,03,10,02,49,22.80
2016,03,10,02,50,21.80
2016,03,10,02,51,20.80
2016,03,10,02,52,16.90
2016,03,10,02,53,14.70
2016,03,10,02,54,12.30
2016,03,10,02,55,12.30
2016,03,10,02,56,18.20
2016,03,10,02,57,11.20
2016,03,10,02,58,17.60
2016,03,10,02,59,15.00
2016,03,10,03,00,14.10
2016,03,10,03,01,19.70
2016,03,10,03,02,17.70
2016,03,10,03,03,15.00
2016,03,10,03,04,13.10
2016,03,10,03,05,16.70
2016,03,10,03,06,18.70
2016,03,10,03,07,18.40
2016,03,10,03,08,16.60
2016,03,10,03,09,20.10
2016,03,10,03,10,20.30
2016,03,10,03,11,19.50
2016,03,10,03,12,15.30
2016,03,10,03,13,13.00
2016,03,10,03,14,17.60
2016,03,10,03,15,18.10
2016,03,10,03,16,21.20
2016,03,10,03,17,20.50
2016,03,10,03,18,12.80
2016,03,10,03,19,13.60
2016,03,10,03,20,16.90
2016,03,10,03,21,20.10
2016,03,10,03,22,18.30
2016,03,10,03,23,18.70
2016,03,10,03,24,19.10
2016,03,10,03,25,13.30
2016,03,10,03,26,9.20
2016,03,10,03,27,12.70
2016,03,10,03,28,15.00
2016,03,10,03,29,17.80
2016,03,10,03,30,21.20
2016,03,10,03,31,20.40
2016,03,10,03,32,20.00
2016,03,10,03,33,18.30
2016,03,10,03,34,16.40
2016,03,10,03,35,19.80
2016,03,10,03,36,21.20
2016,03,10,03,37,23.10
2016,03,10,03,38,19.90
2016,03,10,03,39,23.70
2016,03,10,03,40,25.20
2016,03,10,03,41,21.70
2016,03,10,03,42,19.70
2016,03,10,03,43,22.70
2016,03,10,03,44,19.50
2016,03,10,03,45,21.80
2016,03,10,03,46,19.30
2016,03,10,03,47,18.60
2016,03,10,03,48,17.00
2016,03,10,03,49,22.60
2016,03,10,03,50,21.90
2016,03,10,03,51,20.80
2016,03,10,03,52,18.80
2016,03,10,03,53,22.90
2016,03,10,03,54,19.40
2016,03,10,03,55,20.50
2016,03,10,03,56,23.20
2016,03,10,03,57,22.80
2016,03,10,03,58,21.60
2016,03,10,03,59,20.10
2016,03,10,04,00,18.80
2016,03,10,04,01,16.80
2016,03,10,04,02,19.20
2016,03,10,04,03,21.20
2016,03,10,04,04,25.50
2016,03,10,04,05,22.60
2016,03,10,04,06,18.40
2016,03,10,04,07,23.00
2016,03,10,04,08,23.80
2016,03,10,04,09,21.20
2016,03,10,04,10,20.00
2016,03,10,04,11,16.30
2016,03,10,04,12,18.30
2016,03,10,04,13,15.00
2016,03,10,04,14,19.40
2016,03,10,04,15,16.50
2016,03,10,04,16,11.20
2016,03,10,04,17,12.20
2016,03,10,04,18,17.50
2016,03,10,04,19,15.50
2016,03,10,04,20,18.20
2016,03,10,04,21,14.60
2016,03,10,04,22,13.40
2016,03,10,04,23,14.60
2016,03,10,04,24,12.20
2016,03,10,04,25,6.80
2016,03,10,04,26,13.00
2016,03,10,04,27,15.40
2016,03,10,04,28,12.50
2016,03,10,04,29,7.80
2016,03,10,04,30,6.90
2016,03,10,04,31,9.30
2016,03,10,04,32,13.00
2016,03,10,04,33,15.00
2016,03,10,04,34,15.00
2016,03,10,04,35,14.30
2016,03,10,04,36,13.80
2016,03,10,04,37,14.60
2016,03,10,04,38,18.20
2016,03,10,04,39,14.70
2016,03,10,04,40,16.50
2016,03,10,04,41,15.10
2016,03,10,04,42,12.30
2016,03,10,04,43,14.20
2016,03,10,04,44,19.20
2016,03,10,04,45,20.00
2016,03,10,04,46,18.30
2016,03,10,04,47,22.40
2016,03,10,04,48,23.20
2016,03,10,04,49,20.50
2016,03,10,04,50,17.50
2016,03,10,04,51,14.40
2016,03,10,04,52,18.60
2016,03,10,04,53,16.10
2016,03,10,04,54,18.60
2016,03,10,04,55,20.20
2016,03,10,04,56,20.30
2016,03,10,04,57,17.80
2016,03,10,04,58,18.00
2016,03,10,04,59,19.60
2016,03,10,05,00,20.00
2016,03,10,05,01,16.20
2016,03,10,05,02,17.90
2016,03,10,05,03,18.80
2016,03,10,05,04,16.00
2016,03,10,05,05,20.30
2016,03,10,05,06,16.00
2016,03,10,05,07,19.30
2016,03,10,05,08,21.90
2016,03,10,05,09,19.60
2016,03,10,05,10,18.70
2016,03,10,05,11,19.20
2016,03,10,05,12,20.60
2016,03,10,05,13,21.00
2016,03,10,05,14,16.90
2016,03,10,05,15,17.50
2016,03,10,05,16,19.10
2016,03,10,05,17,15.70
2016,03,10,05,18,16.90
2016,03,10,05,19,19.20
2016,03,10,05,20,18.00
2016,03,10,05,21,22.10
2016,03,10,05,22,17.80
2016,03,10,05,23,17.30
2016,03,10,05,24,18.00
2016,03,10,05,25,17.90
2016,03,10,05,26,18.80
2016,03,10,05,27,17.20
2016,03,10,05,28,19.30
2016,03,10,05,29,19.10
2016,03,10,05,30,18.40
2016,03,10,05,31,18.60
2016,03,10,05,32,17.10
2016,03,10,05,33,15.90
2016,03,10,05,34,18.30
2016,03,10,05,35,16.70
2016,03,10,05,36,19.10
2016,03,10,05,37,17.50
2016,03,10,05,38,17.70
2016,03,10,05,39,21.10
2016,03,10,05,40,16.30
2016,03,10,05,41,18.50
2016,03,10,05,42,16.70
2016,03,10,05,43,17.60
2016,03,10,05,44,16.50
2016,03,10,05,45,18.80
2016,03,10,05,46,20.80
2016,03,10,05,47,17.40
2016,03,10,05,48,19.10
2016,03,10,05,49,23.30
2016,03,10,05,50,19.70
2016,03,10,05,51,16.90
2016,03,10,05,52,19.70
2016,03,10,05,53,20.80
2016,03,10,05,54,19.80
2016,03,10,05,55,25.30
2016,03,10,05,56,25.90
2016,03,10,05,57,31.40
2016,03,10,05,58,24.60
2016,03,10,05,59,28.10
2016,03,10,06,00,27.90
2016,03,10,06,01,22.40
2016,03,10,06,02,26.40
2016,03,10,06,03,23.30
2016,03,10,06,04,23.60
2016,03,10,06,05,21.20
2016,03,10,06,06,20.50
2016,03,10,06,07,19.30
2016,03,10,06,08,20.20
2016,03,10,06,09,19.80
2016,03,10,06,10,24.60
2016,03,10,06,11,24.10
2016,03,10,06,12,19.70
2016,03,10,06,13,18.40
2016,03,10,06,14,20.20
2016,03,10,06,15,24.30
2016,03,10,06,16,23.90
2016,03,10,06,17,19.40
2016,03,10,06,18,19.10
2016,03,10,06,19,20.60
2016,03,10,06,20,19.70
2016,03,10,06,21,18.70
2016,03,10,06,22,19.10
2016,03,10,06,23,20.00
2016,03,10,06,24,19.50
2016,03,10,06,25,16.70
2016,03,10,06,26,20.90
2016,03,10,06,27,19.40
2016,03,10,06,28,20.20
2016,03,10,06,29,21.80
2016,03,10,06,30,24.50
2016,03,10,06,31,19.50
2016,03,10,06,32,16.70
2016,03,10,06,33,16.20
2016,03,10,06,34,18.60
2016,03,10,06,35,15.00
2016,03,10,06,36,19.20
2016,03,10,06,37,14.40
2016,03,10,06,38,20.80
2016,03,10,06,39,19.60
2016,03,10,06,40,19.50
2016,03,10,06,41,18.60
2016,03,10,06,42,18.10
2016,03,10,06,43,20.10
2016,03,10,06,44,16.20
2016,03,10,06,45,14.00
2016,03,10,06,46,13.20
2016,03,10,06,47,14.10
2016,03,10,06,48,12.80
2016,03,10,06,49,14.30
2016,03,10,06,50,17.30
2016,03,10,06,51,15.80
2016,03,10,06,52,16.90
2016,03,10,06,53,12.80
2016,03,10,06,54,15.30
2016,03,10,06,55,19.00
2016,03,10,06,56,20.20
2016,03,10,06,57,17.70
2016,03,10,06,58,18.50
2016,03,10,06,59,20.30
2016,03,10,07,00,16.30
2016,03,10,07,01,16.40
2016,03,10,07,02,13.00
2016,03,10,07,03,15.80
2016,03,10,07,04,16.70
2016,03,10,07,05,16.50
2016,03,10,07,06,17.40
2016,03,10,07,07,15.60
2016,03,10,07,08,16.20
2016,03,10,07,09,18.90
2016,03,10,07,10,17.70
2016,03,10,07,11,12.70
2016,03,10,07,12,12.10
2016,03,10,07,13,15.90
2016,03,10,07,14,21.40
2016,03,10,07,15,20.80
2016,03,10,07,16,21.00
2016,03,10,07,17,15.40
2016,03,10,07,18,18.50
2016,03,10,07,19,22.30
2016,03,10,07,20,25.00
2016,03,10,07,21,22.60
2016,03,10,07,22,23.20
2016,03,10,07,23,22.00
2016,03,10,07,24,23.40
2016,03,10,07,25,19.40
2016,03,10,07,26,18.10
2016,03,10,07,27,23.30
2016,03,10,07,28,20.50
2016,03,10,07,29,20.00
2016,03,10,07,30,18.10
2016,03,10,07,31,22.20
2016,03,10,07,32,24.10
2016,03,10,07,33,9.40
2016,03,10,07,34,10.90
2016,03,10,07,35,11.10
2016,03,10,07,36,6.80
2016,03,10,07,37,7.00
2016,03,10,07,38,6.50
2016,03,10,07,39,5.20
2016,03,10,07,40,4.50
2016,03,10,07,41,2.10
2016,03,10,07,42,2.50
2016,03,10,07,43,4.30
2016,03,10,07,44,5.40
2016,03,10,07,45,11.30
2016,03,10,07,46,17.90
2016,03,10,07,47,15.10
2016,03,10,07,48,12.70
2016,03,10,07,49,13.60
2016,03,10,07,50,13.60
2016,03,10,07,51,12.00
2016,03,10,07,52,12.80
2016,03,10,07,53,12.00
2016,03,10,07,54,8.40
2016,03,10,07,55,11.10
2016,03,10,07,56,7.00
2016,03,10,07,57,10.10
2016,03,10,07,58,3.80
2016,03,10,07,59,4.40
2016,03,10,08,00,8.10
2016,03,10,08,01,9.80
2016,03,10,08,02,6.70
2016,03,10,08,03,9.10
2016,03,10,08,04,6.20
2016,03,10,08,05,5.80
2016,03,10,08,06,3.70
2016,03,10,08,07,5.70
2016,03,10,08,08,4.50
2016,03,10,08,09,3.80
2016,03,10,08,10,2.90
2016,03,10,08,11,3.60
2016,03,10,08,12,0.80
2016,03,10,08,13,1.80
2016,03,10,08,14,2.90
2016,03,10,08,15,3.90
2016,03,10,08,16,4.60
2016,03,10,08,17,5.50
2016,03,10,08,18,6.80
2016,03,10,08,19,4.40
2016,03,10,08,20,1.30
2016,03,10,08,21,1.00
2016,03,10,08,22,1.20
2016,03,10,08,23,0.80
2016,03,10,08,24,0.80
2016,03,10,08,25,1.40
2016,03,10,08,26,2.60
2016,03,10,08,27,3.10
2016,03,10,08,28,1.80
2016,03,10,08,29,1.40
2016,03,10,08,30,4.30
2016,03,10,08,31,7.30
2016,03,10,08,32,8.50
2016,03,10,08,33,12.70
2016,03,10,08,34,11.90
2016,03,10,08,35,8.90
2016,03,10,08,36,7.50
2016,03,10,08,37,10.30
2016,03,10,08,38,17.60
2016,03,10,08,39,21.10
2016,03,10,08,40,21.90
2016,03,10,08,41,23.30
2016,03,10,08,42,21.30
2016,03,10,08,43,16.30
2016,03,10,08,44,10.30
2016,03,10,08,45,10.10
2016,03,10,08,46,11.20
2016,03,10,08,47,6.50
2016,03,10,08,48,8.40
2016,03,10,08,49,11.40
2016,03,10,08,50,14.80
2016,03,10,08,51,17.20
2016,03,10,08,52,12.10
2016,03,10,08,53,15.40
2016,03,10,08,54,18.20
2016,03,10,08,55,20.70
2016,03,10,08,56,21.10
2016,03,10,08,57,30.00
2016,03,10,08,58,24.00
2016,03,10,08,59,19.40
2016,03,10,09,00,9.00
2016,03,10,09,01,13.00
2016,03,10,09,02,16.20
2016,03,10,09,03,15.00
2016,03,10,09,04,15.20
2016,03,10,09,05,18.10
2016,03,10,09,06,12.50
2016,03,10,09,07,15.30
2016,03,10,09,08,13.00
2016,03,10,09,09,11.00
2016,03,10,09,10,3.40
2016,03,10,09,11,0.80
2016,03,10,09,12,3.10
2016,03,10,09,13,4.50
2016,03,10,09,14,2.30
2016,03,10,09,15,2.20
2016,03,10,09,16,1.90
2016,03,10,09,17,1.60
2016,03,10,09,18,1.50
2016,03,10,09,19,4.70
2016,03,10,09,20,5.00
2016,03,10,09,21,4.50
2016,03,10,09,22,3.90
2016,03,10,09,23,1.70
2016,03,10,09,24,2.30
2016,03,10,09,25,7.00
2016,03,10,09,26,8.80
2016,03,10,09,27,13.10
2016,03,10,09,28,10.60
2016,03,10,09,29,9.00
2016,03,10,09,30,8.40
2016,03,10,09,31,8.20
2016,03,10,09,32,6.30
2016,03,10,09,33,3.40
2016,03,10,09,34,9.40
2016,03,10,09,35,8.20
2016,03,10,09,36,12.10
2016,03,10,09,37,8.50
2016,03,10,09,38,6.80
2016,03,10,09,39,13.40
2016,03,10,09,40,14.20
2016,03,10,09,41,10.60
2016,03,10,09,42,12.20
2016,03,10,09,43,10.90
2016,03,10,09,44,6.80
2016,03,10,09,45,7.00
2016,03,10,09,46,5.50
2016,03,10,09,47,4.30
2016,03,10,09,48,4.10
2016,03,10,09,49,5.80
2016,03,10,09,50,5.00
2016,03,10,09,51,5.50
2016,03,10,09,52,5.70
2016,03,10,09,53,7.00
2016,03,10,09,54,6.50
2016,03,10,09,55,6.40
2016,03,10,09,56,5.70
2016,03,10,09,57,5.30
2016,03,10,09,58,5.60
2016,03,10,09,59,7.10
2016,03,10,10,00,6.70
2016,03,10,10,01,4.30
2016,03,10,10,02,6.00
2016,03,10,10,03,5.00
2016,03,10,10,04,4.80
2016,03,10,10,05,5.10
2016,03,10,10,06,10.70
2016,03,10,10,07,12.80
2016,03,10,10,08,6.90
2016,03,10,10,09,16.70
2016,03,10,10,10,11.00
2016,03,10,10,11,9.80
2016,03,10,10,12,9.70
2016,03,10,10,13,10.30
2016,03,10,10,14,15.80
2016,03,10,10,15,13.80
2016,03,10,10,16,14.80
2016,03,10,10,17,10.50
2016,03,10,10,18,8.40
2016,03,10,10,19,7.10
2016,03,10,10,20,6.70
2016,03,10,10,21,7.60
2016,03,10,10,22,5.60
2016,03,10,10,23,8.20
2016,03,10,10,24,7.30
2016,03,10,10,25,9.60
2016,03,10,10,26,10.00
2016,03,10,10,27,6.90
2016,03,10,10,28,9.10
2016,03,10,10,29,11.20
2016,03,10,10,30,8.10
2016,03,10,10,31,7.60
2016,03,10,10,32,10.20
2016,03,10,10,33,2.80
2016,03,10,10,34,5.40
2016,03,10,10,35,7.20
2016,03,10,10,36,7.20
2016,03,10,10,37,7.20
2016,03,10,10,38,8.00
2016,03,10,10,39,7.70
2016,03,10,10,40,6.70
2016,03,10,10,41,6.60
2016,03,10,10,42,8.40
2016,03,10,10,43,8.50
2016,03,10,10,44,9.60
2016,03,10,10,45,11.00
2016,03,10,10,46,8.30
2016,03,10,10,47,8.50
2016,03,10,10,48,10.80
2016,03,10,10,49,13.50
2016,03,10,10,50,10.20
2016,03,10,10,51,11.40
2016,03,10,10,52,10.20
2016,03,10,10,53,11.60
2016,03,10,10,54,16.70
2016,03,10,10,55,10.50
2016,03,10,10,56,14.60
2016,03,10,10,57,13.60
2016,03,10,10,58,10.90
2016,03,10,10,59,7.60
2016,03,10,11,00,10.00
2016,03,10,11,01,13.80
2016,03,10,11,02,13.00
2016,03,10,11,03,17.20
2016,03,10,11,04,13.20
2016,03,10,11,05,16.50
2016,03,10,11,06,13.30
2016,03,10,11,07,8.00
2016,03,10,11,08,8.90
2016,03,10,11,09,11.10
2016,03,10,11,10,15.50
2016,03,10,11,11,18.80
2016,03,10,11,12,14.20
2016,03,10,11,13,16.00
2016,03,10,11,14,16.80
2016,03,10,11,15,18.80
2016,03,10,11,16,11.90
2016,03,10,11,17,14.60
2016,03,10,11,18,15.80
2016,03,10,11,19,15.10
2016,03,10,11,20,12.30
2016,03,10,11,21,12.20
2016,03,10,11,22,11.30
2016,03,10,11,23,9.40
2016,03,10,11,24,11.40
2016,03,10,11,25,10.90
2016,03,10,11,26,8.50
2016,03,10,11,27,9.10
2016,03,10,11,28,13.00
2016,03,10,11,29,16.70
2016,03,10,11,30,11.10
2016,03,10,11,31,18.40
2016,03,10,11,32,16.50
2016,03,10,11,33,12.60
2016,03,10,11,34,16.00
2016,03,10,11,35,8.10
2016,03,10,11,36,12.50
2016,03,10,11,37,9.70
2016,03,10,11,38,9.60
2016,03,10,11,39,16.20
2016,03,10,11,40,13.80
2016,03,10,11,41,14.10
2016,03,10,11,42,13.40
2016,03,10,11,43,14.30
2016,03,10,11,44,12.20
2016,03,10,11,45,14.00
2016,03,10,11,46,12.30
2016,03,10,11,47,8.30
2016,03,10,11,48,13.00
2016,03,10,11,49,17.40
2016,03,10,11,50,13.70
2016,03,10,11,51,10.50
2016,03,10,11,52,7.20
2016,03,10,11,53,12.40
2016,03,10,11,54,9.10
2016,03,10,11,55,11.50
2016,03,10,11,56,10.00
2016,03,10,11,57,11.70
2016,03,10,11,58,10.10
2016,03,10,11,59,14.00
2016,03,10,12,00,11.20
2016,03,10,12,01,10.00
2016,03,10,12,02,9.00
2016,03,10,12,03,9.30
2016,03,10,12,04,11.50
2016,03,10,12,05,14.70
2016,03,10,12,06,16.60
2016,03,10,12,07,15.50
2016,03,10,12,08,11.40
2016,03,10,12,09,7.60
2016,03,10,12,10,8.10
2016,03,10,12,11,12.70
2016,03,10,12,12,10.50
2016,03,10,12,13,10.20
2016,03,10,12,14,8.50
2016,03,10,12,15,10.70
2016,03,10,12,16,7.80
2016,03,10,12,17,9.20
2016,03,10,12,18,5.90
2016,03,10,12,19,9.00
2016,03,10,12,20,10.70
2016,03,10,12,21,10.00
2016,03,10,12,22,6.20
2016,03,10,12,23,12.20
2016,03,10,12,24,12.90
2016,03,10,12,25,9.60
2016,03,10,12,26,7.20
2016,03,10,12,27,8.50
2016,03,10,12,28,5.10
2016,03,10,12,29,3.70
2016,03,10,12,30,2.50
2016,03,10,12,31,3.60
2016,03,10,12,32,5.90
2016,03,10,12,33,6.50
2016,03,10,12,34,6.50
2016,03,10,12,35,8.20
2016,03,10,12,36,12.60
2016,03,10,12,37,9.00
2016,03,10,12,38,12.60
2016,03,10,12,39,12.10
2016,03,10,12,40,8.50
2016,03,10,12,41,6.10
2016,03,10,12,42,8.80
2016,03,10,12,43,10.50
2016,03,10,12,44,8.10
2016,03,10,12,45,7.40
2016,03,10,12,46,7.40
2016,03,10,12,47,3.90
2016,03,10,12,48,4.10
2016,03,10,12,49,3.20
2016,03,10,12,50,7.30
2016,03,10,12,51,13.00
2016,03,10,12,52,9.70
2016,03,10,12,53,8.10
2016,03,10,12,54,8.10
2016,03,10,12,55,3.50
2016,03,10,12,56,6.50
2016,03,10,12,57,6.70
2016,03,10,12,58,6.60
2016,03,10,12,59,7.90
2016,03,10,13,00,7.90
2016,03,10,13,01,4.90
2016,03,10,13,02,5.90
2016,03,10,13,03,4.30
2016,03,10,13,04,7.40
2016,03,10,13,05,6.40
2016,03,10,13,06,9.60
2016,03,10,13,07,10.00
2016,03,10,13,08,7.10
2016,03,10,13,09,10.50
2016,03,10,13,10,15.00
2016,03,10,13,11,8.30
2016,03,10,13,12,8.40
2016,03,10,13,13,5.60
2016,03,10,13,14,7.40
2016,03,10,13,15,10.30
2016,03,10,13,16,7.50
2016,03,10,13,17,9.50
2016,03,10,13,18,9.30
2016,03,10,13,19,5.90
2016,03,10,13,20,5.00
2016,03,10,13,21,6.10
2016,03,10,13,22,5.30
2016,03,10,13,23,4.00
2016,03,10,13,24,7.20
2016,03,10,13,25,12.60
2016,03,10,13,26,15.40
2016,03,10,13,27,13.20
2016,03,10,13,28,11.20
2016,03,10,13,29,11.40
2016,03,10,13,30,13.00
2016,03,10,13,31,7.70
2016,03,10,13,32,12.60
2016,03,10,13,33,13.70
2016,03,10,13,34,12.20
2016,03,10,13,35,12.90
2016,03,10,13,36,9.70
2016,03,10,13,37,11.50
2016,03,10,13,38,10.80
2016,03,10,13,39,9.50
2016,03,10,13,40,6.80
2016,03,10,13,41,11.50
2016,03,10,13,42,11.30
2016,03,10,13,43,11.70
2016,03,10,13,44,10.60
2016,03,10,13,45,12.10
2016,03,10,13,46,15.50
2016,03,10,13,47,16.80
2016,03,10,13,48,9.60
2016,03,10,13,49,6.90
2016,03,10,13,50,11.80
2016,03,10,13,51,12.10
2016,03,10,13,52,11.00
2016,03,10,13,53,12.40
2016,03,10,13,54,9.20
2016,03,10,13,55,13.00
2016,03,10,13,56,17.60
2016,03,10,13,57,13.40
2016,03,10,13,58,14.50
2016,03,10,13,59,12.40
2016,03,10,14,00,10.10
2016,03,10,14,01,16.70
2016,03,10,14,02,9.70
2016,03,10,14,03,10.10
2016,03,10,14,04,14.10
2016,03,10,14,05,15.80
2016,03,10,14,06,12.40
2016,03,10,14,07,11.80
2016,03,10,14,08,13.80
2016,03,10,14,09,11.20
2016,03,10,14,10,12.70
2016,03,10,14,11,9.00
2016,03,10,14,12,11.40
2016,03,10,14,13,18.70
2016,03,10,14,14,19.90
2016,03,10,14,15,24.10
2016,03,10,14,16,16.10
2016,03,10,14,17,15.40
2016,03,10,14,18,8.90
2016,03,10,14,19,8.40
2016,03,10,14,20,9.60
2016,03,10,14,21,8.80
2016,03,10,14,22,9.70
2016,03,10,14,23,15.40
2016,03,10,14,24,6.80
2016,03,10,14,25,8.30
2016,03,10,14,26,12.40
2016,03,10,14,27,9.60
2016,03,10,14,28,13.40
2016,03,10,14,29,12.90
2016,03,10,14,30,11.20
2016,03,10,14,31,14.20
2016,03,10,14,32,11.30
2016,03,10,14,33,7.90
2016,03,10,14,34,10.70
2016,03,10,14,35,12.00
2016,03,10,14,36,9.40
2016,03,10,14,37,11.10
2016,03,10,14,38,8.80
2016,03,10,14,39,13.40
2016,03,10,14,40,12.70
2016,03,10,14,41,16.80
2016,03,10,14,42,13.70
2016,03,10,14,43,12.70
2016,03,10,14,44,10.40
2016,03,10,14,45,11.40
2016,03,10,14,46,10.10
2016,03,10,14,47,10.70
2016,03,10,14,48,11.60
2016,03,10,14,49,12.20
2016,03,10,14,50,13.60
2016,03,10,14,51,10.50
2016,03,10,14,52,6.50
2016,03,10,14,53,9.90
2016,03,10,14,54,12.30
2016,03,10,14,55,8.40
2016,03,10,14,56,4.60
2016,03,10,14,57,3.70
2016,03,10,14,58,3.20
2016,03,10,14,59,5.40
2016,03,10,15,00,5.10
2016,03,10,15,01,4.60
2016,03,10,15,02,2.20
2016,03,10,15,03,6.70
2016,03,10,15,04,4.20
2016,03,10,15,05,3.70
2016,03,10,15,06,2.30
2016,03,10,15,07,4.00
2016,03,10,15,08,3.80
2016,03,10,15,09,5.90
2016,03,10,15,10,4.00
2016,03,10,15,11,5.80
2016,03,10,15,12,6.00
2016,03,10,15,13,5.90
2016,03,10,15,14,5.30
2016,03,10,15,15,5.80
2016,03,10,15,16,8.10
2016,03,10,15,17,14.80
2016,03,10,15,18,13.50
2016,03,10,15,19,8.20
2016,03,10,15,20,7.70
2016,03,10,15,21,7.30
2016,03,10,15,22,6.80
2016,03,10,15,23,6.10
2016,03,10,15,24,5.50
2016,03,10,15,25,4.40
2016,03,10,15,26,3.70
2016,03,10,15,27,4.90
2016,03,10,15,28,6.40
2016,03,10,15,29,6.40
2016,03,10,15,30,7.60
2016,03,10,15,31,9.00
2016,03,10,15,32,8.90
2016,03,10,15,33,9.00
2016,03,10,15,34,10.20
2016,03,10,15,35,9.60
2016,03,10,15,36,8.50
2016,03,10,15,37,4.70
2016,03,10,15,38,3.30
2016,03,10,15,39,3.50
2016,03,10,15,40,4.40
2016,03,10,15,41,3.70
2016,03,10,15,42,3.00
2016,03,10,15,43,3.90
2016,03,10,15,44,4.30
2016,03,10,15,45,5.40
2016,03,10,15,46,3.90
2016,03,10,15,47,4.50
2016,03,10,15,48,7.10
2016,03,10,15,49,5.10
2016,03,10,15,50,6.30
2016,03,10,15,51,8.50
2016,03,10,15,52,8.00
2016,03,10,15,53,1.80
2016,03,10,15,54,3.50
2016,03,10,15,55,4.80
2016,03,10,15,56,5.60
2016,03,10,15,57,7.20
2016,03,10,15,58,4.90
2016,03,10,15,59,2.20
2016,03,10,16,00,1.00
2016,03,10,16,01,0.50
2016,03,10,16,02,0.20
2016,03,10,16,03,1.50
2016,03,10,16,04,0.90
2016,03,10,16,05,1.00
2016,03,10,16,06,3.00
2016,03,10,16,07,3.00
2016,03,10,16,08,3.20
2016,03,10,16,09,3.50
2016,03,10,16,10,1.70
2016,03,10,16,11,0.70
2016,03,10,16,12,1.90
2016,03,10,16,13,1.00
2016,03,10,16,14,2.60
2016,03,10,16,15,3.10
2016,03,10,16,16,2.30
2016,03,10,16,17,1.70
2016,03,10,16,18,0.20
2016,03,10,16,19,1.70
2016,03,10,16,20,4.70
2016,03,10,16,21,4.30
2016,03,10,16,22,4.30
2016,03,10,16,23,2.40
2016,03,10,16,24,1.00
2016,03,10,16,25,2.50
2016,03,10,16,26,1.90
2016,03,10,16,27,4.10
2016,03,10,16,28,7.20
2016,03,10,16,29,6.50
2016,03,10,16,30,4.40
2016,03,10,16,31,4.70
2016,03,10,16,32,3.80
2016,03,10,16,33,7.30
2016,03,10,16,34,5.20
2016,03,10,16,35,5.70
2016,03,10,16,36,10.80
2016,03,10,16,37,6.30
2016,03,10,16,38,5.30
2016,03,10,16,39,3.90
2016,03,10,16,40,4.00
2016,03,10,16,41,1.50
2016,03,10,16,42,2.50
2016,03,10,16,43,3.50
2016,03,10,16,44,6.50
2016,03,10,16,45,2.80
2016,03,10,16,46,3.50
2016,03,10,16,47,3.90
2016,03,10,16,48,6.60
2016,03,10,16,49,5.60
2016,03,10,16,50,2.20
2016,03,10,16,51,3.70
2016,03,10,16,52,0.80
2016,03,10,16,53,0.20
2016,03,10,16,54,1.40
2016,03,10,16,55,3.60
2016,03,10,16,56,4.30
2016,03,10,16,57,3.20
2016,03,10,16,58,4.70
2016,03,10,16,59,4.70
2016,03,10,17,00,6.70
2016,03,10,17,01,2.60
2016,03,10,17,02,2.70
2016,03,10,17,03,4.30
2016,03,10,17,04,2.50
2016,03,10,17,05,4.10
2016,03,10,17,06,3.00
2016,03,10,17,07,4.70
2016,03,10,17,08,4.30
2016,03,10,17,09,3.10
2016,03,10,17,10,6.90
2016,03,10,17,11,6.00
2016,03,10,17,12,4.40
2016,03,10,17,13,5.10
2016,03,10,17,14,7.00
2016,03,10,17,15,7.70
2016,03,10,17,16,7.70
2016,03,10,17,17,6.70
2016,03,10,17,18,7.70
2016,03,10,17,19,6.40
2016,03,10,17,20,5.30
2016,03,10,17,21,5.00
2016,03,10,17,22,3.40
2016,03,10,17,23,2.50
2016,03,10,17,24,4.50
2016,03,10,17,25,3.30
2016,03,10,17,26,5.20
2016,03,10,17,27,3.30
2016,03,10,17,28,1.80
2016,03,10,17,29,4.70
2016,03,10,17,30,5.70
2016,03,10,17,31,7.60
2016,03,10,17,32,7.60
2016,03,10,17,33,7.90
2016,03,10,17,34,6.70
2016,03,10,17,35,9.30
2016,03,10,17,36,7.90